[[{"header":{"parameterUnit":"m.s-1","parameterCategory":1,"la1":30.2991,"la2":30.254,"lo1":-89.0895,"lo2":-89.0444,"dy":0.0017,"dx":0.0017,"nx":28,"ny":28,"refTime":"2025-06-10T21:00:00:Z","depth":0,"parameterNumber":2,"parameterNumberName":"U-component_of_WINDS"},"data":[0,0,0,0,0,0,0,0,0,0,0,0,0,0,0,0,0,0,0,0,0,0,0,0,0,0,0,0,0,0,0,0,0,0,0,0,0,0,0,0,0,0,0,0,0,0,0,0,0,0,0,0,0,0,0,0,0,0,0.0599,0.06,0,0.0686,0.0687,0.0688,0.0706,0.0705,0.0705,0.0704,0.0795,0.0798,0.0801,0,0,0,0,0,0,0,0,0,0,0,0,0,0.0451,0.0454,0.0599,0.06,0.0601,0.0686,0.0687,0.0688,0.0706,0.0705,0.0705,0.0704,0.0794,0.0798,0.0802,0,0,0,0,0,0,0,0,0,0,0,0,0,0.0524,0.0455,0.0599,0.062,0.0623,0.0685,0.0687,0.0688,0.0706,0.0705,0.0704,0.0704,0.0793,0.0798,0.0802,0.085,0,0,0.0816,0.0818,0,0,0,0,0,0,0,0,0.052,0.053,0.0616,0.0619,0.0622,0.0684,0.0668,0.0742,0.0707,0.0675,0.0704,0.0703,0.0759,0.0767,0.0785,0.0854,0.0858,0.0816,0.0819,0.0821,0.0822,0,0,0,0,0,0,0,0.0515,0.0526,0.0633,0.0617,0.0621,0.0626,0.0636,0.0682,0.0722,0.0678,0.0679,0.0689,0.0761,0.0781,0.0787,0.0859,0.0816,0.082,0.0823,0.0825,0.0972,0.0974,0,0,0,0,0,0,0.0506,0.0522,0.0631,0.0636,0.0568,0.063,0.064,0.0665,0.0721,0.0729,0.069,0.0689,0.0773,0.0782,0.0791,0.0851,0.0821,0.0825,0.0828,0.0971,0.0973,0.0974,0,0,0,0,0,0,0.0503,0.0515,0.0627,0.0579,0.0594,0.0633,0.0661,0.0667,0.0687,0.073,0.0738,0.0703,0.0773,0.0784,0.0835,0.0854,0.0827,0.0832,0.097,0.0972,0.0973,0.0971,0,0,0,0,0,0,0.0498,0.0514,0.0532,0.058,0.0596,0.0669,0.0662,0.067,0.0695,0.0695,0.0744,0.0751,0.0773,0.0828,0.0839,0.086,0.0835,0.0968,0.0971,0.0973,0.0969,0.0972,0.0975,0,0,0,0,0,0.0493,0.0528,0.0533,0.0546,0.0619,0.067,0.068,0.0703,0.0696,0.0715,0.0743,0.075,0.085,0.0833,0.0846,0.0868,0.0967,0.097,0.0973,0.0968,0.0972,0.0975,0,0,0,0,0,0,0.0483,0.0535,0.0541,0.0592,0.0626,0.0673,0.0697,0.0706,0.0744,0.0743,0.0771,0.0782,0.0831,0.0855,0.0835,0.0918,0.0908,0.0914,0.09,0.0904,0.0907,0.0901,0.0839,0,0,0,0,0,0.0486,0.0522,0.0566,0.0607,0.0624,0.0658,0.0681,0.0696,0.0733,0.0748,0.0779,0.0816,0.0855,0.0881,0.092,0.0972,0.0984,0.0994,0.0997,0.0999,0.1004,0.1034,0.1039,0.0983,0.0983,0.0983,0,0,0.0494,0.0527,0.0548,0.0606,0.0634,0.0672,0.067,0.071,0.0738,0.0754,0.0804,0.0828,0.0871,0.0923,0.0947,0.0944,0.1022,0.1002,0.1004,0.1007,0.1037,0.1043,0.1048,0.0985,0.0984,0.0984,0,0,0.0528,0.0556,0.0593,0.0622,0.0665,0.0687,0.0696,0.0742,0.0758,0.0809,0.0822,0.0856,0.0924,0.0954,0.0978,0.1023,0.1032,0.1035,0.105,0.1079,0.1084,0.1088,0.1105,0.1111,0.1039,0.104,0.104,0,0.0532,0.0589,0.0612,0.0651,0.0677,0.0692,0.0731,0.0758,0.0812,0.0829,0.0824,0.091,0.094,0.0999,0.101,0.1029,0.1041,0.103,0.1081,0.1085,0.109,0.1106,0.1113,0.104,0.104,0.104,0.104,0,0.0593,0.0632,0.0657,0.0708,0.0736,0.0775,0.0805,0.0831,0.0844,0.0867,0.0918,0.0954,0.1001,0.1016,0.1029,0.1078,0.1075,0.1075,0.1067,0.1095,0.1111,0.1117,0.104,0.104,0.104,0.104,0,0,0.0622,0.0686,0.0695,0.0718,0.0767,0.0798,0.0838,0.0883,0.0905,0.0942,0.0977,0.1034,0.1035,0.1062,0.1078,0.1104,0.1139,0.1101,0.1103,0.1108,0.1196,0.1197,0.1203,0.1144,0.1146,0.1147,0.1193,0,0.0662,0.0733,0.0756,0.0816,0.0853,0.0868,0.0903,0.0937,0.096,0.0995,0.1021,0.1061,0.1058,0.1075,0.1101,0.1129,0.1157,0.1126,0.1178,0.118,0.1168,0.1212,0.1212,0.1254,0.12,0.1201,0.1201,0,0.0718,0.0756,0.0819,0.0864,0.088,0.0911,0.0955,0.0988,0.1028,0.1042,0.1073,0.1087,0.1131,0.1119,0.118,0.1158,0.1181,0.1198,0.12,0.1207,0.1193,0.122,0.1268,0.1274,0.1211,0.1211,0.121,0,0.0735,0.0801,0.0847,0.0867,0.092,0.0942,0.0965,0.1003,0.1029,0.1068,0.1085,0.1128,0.1152,0.1185,0.1211,0.12,0.127,0.1261,0.1285,0.1284,0.1299,0.1298,0.1352,0.1313,0.1312,0.1312,0.1312,0,0.0777,0.0816,0.0855,0.0884,0.0928,0.0954,0.0997,0.1021,0.1055,0.109,0.1106,0.1138,0.117,0.1207,0.1227,0.1275,0.1285,0.1299,0.1305,0.1298,0.1297,0.1314,0.1312,0.1314,0.1314,0.1313,0.1313,0,0.0803,0.0831,0.0883,0.0929,0.0942,0.0972,0.1012,0.1041,0.1064,0.1108,0.1119,0.1156,0.12,0.1229,0.1286,0.13,0.1352,0.1356,0.1339,0.1341,0.1364,0.1362,0.1432,0.1443,0.1395,0.1395,0.1396,0,0.0828,0.0858,0.0908,0.0932,0.0955,0.0994,0.102,0.1047,0.1074,0.1122,0.1145,0.119,0.1228,0.1298,0.133,0.1374,0.1379,0.1401,0.1386,0.1379,0.1381,0.1379,0.1383,0.1404,0.1404,0.1404,0.1404,0,0.0871,0.0884,0.0921,0.0964,0.0995,0.103,0.1065,0.1084,0.1117,0.1147,0.1192,0.1221,0.1279,0.1324,0.137,0.1395,0.1406,0.1409,0.1417,0.1411,0.14,0.1407,0.1346,0.1407,0.1407,0.1407,0.1407,0.1406,0.0898,0.0926,0.0965,0.1007,0.1036,0.1069,0.1098,0.1125,0.1163,0.1212,0.1226,0.1273,0.1313,0.1376,0.1402,0.144,0.1438,0.1449,0.1452,0.1455,0.1455,0.1393,0.1448,0.1448,0.1448,0.1448,0.1448,0,0.0943,0.0969,0.1007,0.1055,0.1088,0.1095,0.1134,0.1161,0.1203,0.1238,0.1275,0.1327,0.1371,0.1407,0.1452,0.1476,0.1482,0.1487,0.1486,0.1492,0.1454,0.1443,0.1481,0.1481,0.1481,0.1481,0.1481,0.1481,0.097,0.1017,0.1034,0.1097,0.1123,0.1169,0.1191,0.1222,0.1251,0.1308,0.1345,0.1367,0.1404,0.1452,0.1493,0.1502,0.1519,0.1523,0.1534,0.1498,0.1494,0.1491,0.1481,0.1526,0.1526,0.1568,0.1568,0.1569]},{"header":{"parameterUnit":"m.s-1","parameterCategory":1,"la1":30.2991,"la2":30.254,"lo1":-89.0895,"lo2":-89.0444,"dy":0.0017,"dx":0.0017,"nx":28,"ny":28,"refTime":"2025-06-10T21:00:00:Z","depth":0,"parameterNumber":3,"parameterNumberName":"V-component_of_WINDS"},"data":[0,0,0,0,0,0,0,0,0,0,0,0,0,0,0,0,0,0,0,0,0,0,0,0,0,0,0,0,0,0,0,0,0,0,0,0,0,0,0,0,0,0,0,0,0,0,0,0,0,0,0,0,0,0,0,0,0,0,5.0975,5.0975,0,5.1005,5.1006,5.1006,5.1012,5.1012,5.1011,5.1011,5.1039,5.104,5.1041,0,0,0,0,0,0,0,0,0,0,0,0,0,5.0916,5.0917,5.0975,5.0975,5.0975,5.1005,5.1006,5.1006,5.1012,5.1012,5.1011,5.1011,5.1038,5.1039,5.1041,0,0,0,0,0,0,0,0,0,0,0,0,0,5.0944,5.0918,5.0974,5.0982,5.0983,5.1005,5.1006,5.1006,5.1012,5.1012,5.1011,5.1011,5.1038,5.1039,5.1041,5.1057,0,0,5.1045,5.1046,0,0,0,0,0,0,0,0,5.0942,5.0946,5.098,5.0981,5.0983,5.1005,5.0995,5.1023,5.1012,5.1001,5.1011,5.1011,5.1027,5.103,5.1036,5.1058,5.1059,5.1045,5.1046,5.1047,5.1047,0,0,0,0,0,0,0,5.094,5.0945,5.0987,5.0981,5.0982,5.0982,5.0986,5.1001,5.1015,5.1002,5.1002,5.1006,5.1028,5.1035,5.1037,5.1059,5.1045,5.1046,5.1047,5.1048,5.1096,5.1096,0,0,0,0,0,0,5.0938,5.0943,5.0986,5.0988,5.0961,5.0984,5.0988,5.0998,5.1015,5.1018,5.1006,5.1006,5.1032,5.1035,5.1038,5.1058,5.1047,5.1048,5.1049,5.1095,5.1096,5.1096,0,0,0,0,0,0,5.0936,5.0941,5.0984,5.0965,5.0971,5.0985,5.0996,5.0999,5.1006,5.1019,5.1021,5.1011,5.1032,5.1036,5.1052,5.1059,5.1049,5.105,5.1095,5.1096,5.1096,5.1098,0,0,0,0,0,0,5.0935,5.0941,5.0948,5.0966,5.0972,5.1,5.0997,5.0999,5.1008,5.1009,5.1024,5.1026,5.1032,5.105,5.1054,5.1061,5.1051,5.1094,5.1095,5.1096,5.1097,5.1098,5.1099,0,0,0,0,0,5.0933,5.0946,5.0948,5.0954,5.0981,5.1,5.1003,5.1012,5.1009,5.1016,5.1024,5.1025,5.1057,5.1052,5.1056,5.1063,5.1094,5.1095,5.1096,5.1097,5.1098,5.1099,0,0,0,0,0,0,5.0927,5.0949,5.0951,5.0971,5.0984,5.1001,5.101,5.1013,5.1025,5.1025,5.1033,5.1036,5.1052,5.1059,5.1053,5.1079,5.1075,5.1077,5.1075,5.1076,5.1077,5.1075,5.1052,0,0,0,0,0,5.0929,5.0944,5.0961,5.0977,5.0983,5.0995,5.1004,5.1009,5.1022,5.1027,5.1037,5.1048,5.106,5.1068,5.1081,5.1098,5.1101,5.1105,5.1106,5.1107,5.1109,5.1118,5.112,5.1099,5.1099,5.1099,0,0,5.0931,5.0945,5.0953,5.0976,5.0986,5.1,5.1,5.1014,5.1024,5.1028,5.1045,5.1053,5.1066,5.1083,5.1091,5.1089,5.1115,5.1108,5.1109,5.111,5.1119,5.1121,5.1123,5.11,5.11,5.11,0,0,5.0943,5.0955,5.097,5.0981,5.0998,5.1006,5.1009,5.1026,5.1032,5.1049,5.1052,5.1064,5.1085,5.1095,5.1102,5.1118,5.112,5.1122,5.1127,5.1137,5.1139,5.114,5.1146,5.1148,5.1123,5.1123,5.1123,0,5.0944,5.0967,5.0977,5.0992,5.1002,5.1008,5.1022,5.1032,5.105,5.1056,5.1054,5.1082,5.1091,5.1111,5.1115,5.112,5.1124,5.112,5.1138,5.1139,5.1141,5.1147,5.1149,5.1123,5.1123,5.1123,5.1123,0,5.0967,5.0983,5.0993,5.1013,5.1023,5.1038,5.1049,5.1058,5.1062,5.107,5.1088,5.1099,5.1114,5.1119,5.1122,5.1139,5.1137,5.1136,5.1132,5.1143,5.1149,5.1151,5.1123,5.1123,5.1123,5.1123,0,0,5.0977,5.1003,5.1007,5.1016,5.1035,5.1046,5.1061,5.1077,5.1085,5.1097,5.1109,5.1128,5.1127,5.1136,5.114,5.1149,5.1161,5.1147,5.1147,5.1149,5.118,5.1181,5.1183,5.1162,5.1162,5.1163,5.1179,0,5.0991,5.102,5.1029,5.1052,5.1066,5.1072,5.1084,5.1097,5.1104,5.1116,5.1124,5.1137,5.1136,5.1141,5.1149,5.1158,5.1167,5.1157,5.1173,5.1173,5.117,5.1186,5.1187,5.1202,5.1181,5.1182,5.1182,0,5.1012,5.1028,5.1052,5.107,5.1076,5.1088,5.1103,5.1115,5.1129,5.1134,5.1144,5.1148,5.1162,5.1157,5.1177,5.1169,5.1176,5.1181,5.1182,5.1184,5.1178,5.1189,5.1207,5.1209,5.1185,5.1185,5.1185,0,5.1018,5.1044,5.1062,5.107,5.1091,5.1099,5.1107,5.1121,5.113,5.1143,5.1149,5.1163,5.1171,5.1181,5.1188,5.1184,5.1207,5.1203,5.1211,5.1211,5.1216,5.1216,5.1236,5.1219,5.1219,5.1219,5.1219,0,5.1033,5.1048,5.1065,5.1077,5.1093,5.1103,5.1119,5.1128,5.114,5.1152,5.1157,5.1168,5.1177,5.1189,5.1194,5.121,5.1213,5.1217,5.1218,5.1217,5.1216,5.1222,5.1221,5.122,5.122,5.122,5.122,0,5.1042,5.1054,5.1075,5.1093,5.1098,5.111,5.1125,5.1135,5.1143,5.1159,5.1163,5.1175,5.1189,5.1198,5.1215,5.1219,5.1236,5.1237,5.1232,5.1233,5.1241,5.1241,5.1266,5.127,5.125,5.1251,5.1251,0,5.1052,5.1064,5.1084,5.1094,5.1103,5.1118,5.1128,5.1138,5.1148,5.1164,5.1173,5.1188,5.12,5.1223,5.1232,5.1246,5.1247,5.1255,5.1249,5.1247,5.1248,5.1247,5.1249,5.1256,5.1256,5.1256,5.1256,0,5.1068,5.1073,5.1089,5.1106,5.1118,5.1132,5.1145,5.1152,5.1164,5.1175,5.119,5.12,5.1219,5.1234,5.1248,5.1255,5.1258,5.1258,5.1261,5.126,5.1257,5.126,5.1236,5.1258,5.1258,5.1257,5.1257,5.1257,5.1078,5.1089,5.1106,5.1122,5.1134,5.1146,5.1158,5.1168,5.1182,5.1199,5.1203,5.122,5.1232,5.1252,5.126,5.1272,5.1271,5.1275,5.1276,5.1277,5.1278,5.1255,5.1275,5.1275,5.1275,5.1275,5.1275,0,5.1095,5.1106,5.1121,5.1141,5.1154,5.1156,5.1171,5.1182,5.1197,5.1209,5.1222,5.124,5.1254,5.1265,5.128,5.1287,5.1289,5.1291,5.1291,5.1292,5.1278,5.1274,5.1289,5.1289,5.1289,5.1289,5.1289,5.1289,5.1105,5.1125,5.1132,5.1157,5.1167,5.1185,5.1194,5.1205,5.1215,5.1236,5.1248,5.1256,5.1267,5.1283,5.1296,5.1299,5.1304,5.1306,5.1309,5.1295,5.1293,5.1292,5.1289,5.1307,5.1307,5.1323,5.1323,5.1323]}]]